Regional Weather Roundup
Issued by NWS

Home | Current Version | Previous Version | Graphics & Text | Print | Product List | Glossary On
Versions: 1 2 3 4 5 6 7 8 9 10 11 12 13 14 15 16 17 18 19 20 21 22 23 24 25 26 27 28 29 30 31 32 33 34 35 36 37 38 39 40 41 42 43 44 45 46 47 48 49 50
000
ASUS43 KTOP 170059
RWRKS

WEATHER ROUNDUP FOR KANSAS
NATIONAL WEATHER SERVICE GOODLAND KS
700 PM CST TUE JAN 16 2018

NOTE:  "FAIR" INDICATES FEW OR NO CLOUDS BELOW 12,000 FEET WITH NO
SIGNIFICANT WEATHER AND/OR OBSTRUCTIONS TO VISIBILITY.

KSZ001>006-013>018-027>032-041>047-170200-
NORTHWEST KANSAS

CITY           SKY/WX    TMP DP  RH WIND       PRES   REMARKS
GOODLAND       CLOUDY    10  -1  61 S9        30.43F
HAYS           CLOUDY    10   1  67 S3        30.63F
HILL CITY      CLOUDY    10  -1  61 CALM      30.60F
RUSSELL        CLOUDY    10   2  69 CALM      30.63F
$$

KSZ061>065-074>080-084>089-170200-
SOUTHWEST KANSAS

CITY           SKY/WX    TMP DP  RH WIND       PRES   REMARKS
DODGE CITY     CLOUDY    12  -4  48 E3        30.59S
GARDEN CITY    CLOUDY    12 -12  33 E8        30.54F
GREAT BEND     CLOUDY     6  -2  69 CALM      30.66
LIBERAL        CLOUDY    15  -6  39 E7        30.57S
$$

KSZ066>073-081>083-090>101-170200-
SOUTHEAST KANSAS

CITY           SKY/WX    TMP DP  RH WIND       PRES   REMARKS
CHANUTE        CLEAR      8   2  76 CALM      30.74R
COFFEYVILLE    CLEAR      8   3  80 CALM      30.77R
HUTCHINSON     CLEAR     10   4  76 NW3       30.68F
NEWTON         CLEAR      6   2  83 NW3       30.69S
PARSONS        CLEAR      4   0  83 CALM      30.76R
WICHITA INTL   CLEAR     13   5  70 N6        30.71R
WICHITA JABRA  CLEAR      7   3  84 N5        30.70S
WICHITA MCCONL CLEAR      9   2  74 N6        30.70R
WINFIELD       CLEAR     10   4  76 NE5       30.73S
$$

KSZ007>012-019>026-033>040-048>060-102>105-170200-
NORTHEAST KANSAS

CITY           SKY/WX    TMP DP  RH WIND       PRES   REMARKS
CONCORDIA      CLOUDY    10   3  73 CALM      30.66F
EMPORIA        CLEAR      6   1  80 NW6       30.70F
LAWRENCE       CLEAR      5  -2  72 CALM      30.74R
MANHATTAN      CLEAR      9   2  73 W3        30.72F
OLATHE IND     CLEAR      2  -2  83 N5        30.71S
OLATHE EXE     CLEAR      6   0  76 NW5       30.70S
SALINA         CLEAR     13   5  70 SE6       30.70F
TOPEKA BILLARD CLEAR     10   2  69 NW3       30.73S
TOPEKA FORBES  CLEAR      5   0  79 NW6       30.71R
$$




USA.gov is the U.S. government's official web portal to all federal, state and local government web resources and services.